Flag for U.S.A. Weather past 2 weeks in Glendale, California, U.S.A.

Now
57 °F

Clear.


Feels Like: 56 °F
Forecast: 54 / 65 °F
Wind: 6 mph from South

Location: Burbank-Glendale-Pasadena Airport

Current Time: Apr 20, 2015 at 10:38:35 PM

Latest Report: Apr 20, 2015 at 9:53 PM


Visibility: 10 mi

Pressure: 29.86 "Hg

Humidity: 78%

Dew point: 50 °F

Location of GlendaleLocation

Historic Weather in Glendale — Graph

°F

Glendale temperature yesterday

Maximum temperature yesterday: 78 °F (at 1:53 PM)
Minimum temperature yesterday: 54 °F (at 5:53 AM)
Average temperature yesterday: 65 °F

Past Weeks' High & Low Weather Summary

 TemperatureHumidityPressure
High83 °F (Apr 17, 1:53 PM)90% (Apr 7, 8:53 PM)30.08 "Hg (Apr 7, 8:53 PM)
Low45 °F (Apr 8, 5:53 AM)7% (Apr 16, 10:53 AM)29.78 "Hg (Apr 20, 5:53 PM)
Average63 °F48%29.94 "Hg
* Reported Apr 5 8:53 PM — Apr 20 8:53 PM, Glendale, Weather by CustomWeather, © 2015

Note: Actual official high and low records may vary slightly from our data, if they occured in-between our weather recording intervals... More about our weather records

Advertising

Glendale weather history for previous 24 hours

 ConditionsComfort  
Time TempWeatherWind HumidityBarometerVisibility
8:53 PM
Mon, Apr 20
58 °FClear.7 mph75%29.85 "Hg10 mi
7:53 PM60 °FSunny.8 mph69%29.82 "Hg10 mi
6:53 PM63 °FSunny.10 mph58%29.80 "Hg10 mi
5:53 PM66 °FSunny.8 mph49%29.78 "Hg10 mi
4:53 PM67 °FSunny.10 mph51%29.79 "Hg10 mi
3:53 PM69 °FSunny.12 mph47%29.79 "Hg10 mi
2:53 PM70 °FSunny.10 mph46%29.80 "Hg10 mi
1:53 PM69 °FSunny.10 mph49%29.82 "Hg10 mi
12:53 PM68 °FSunny.10 mph53%29.83 "Hg10 mi
11:53 AM67 °FSunny.3 mph55%29.85 "Hg8 mi
10:53 AM63 °FSunny.3 mph63%29.87 "Hg10 mi
9:53 AM60 °FPassing clouds.No wind69%29.88 "Hg9 mi
8:53 AM56 °FOvercast.No wind77%29.88 "Hg8 mi
7:53 AM56 °FOvercast.3 mph77%29.88 "Hg8 mi
6:53 AM55 °FOvercast.No wind83%29.86 "Hg8 mi
5:53 AM54 °FOvercast.3 mph86%29.85 "Hg9 mi
4:53 AM54 °FClear.3 mph83%29.85 "Hg10 mi
3:53 AM55 °FClear.3 mph83%29.85 "Hg10 mi
2:53 AM56 °FClear.No wind81%29.86 "Hg10 mi
1:53 AM56 °FClear.No wind81%29.87 "Hg10 mi
12:53 AM57 °FClear.5 mph78%29.87 "Hg10 mi
11:53 PM
Sun, Apr 19
59 °FClear.7 mph78%29.86 "Hg10 mi
10:53 PM60 °FClear.7 mph75%29.86 "Hg10 mi
Weather by CustomWeather, © 2015

See weather overviewHow to use our weather pages